Regional Weather Roundup
Issued by NWS Goodland, KS

Home | Current Version | Previous Version | Graphics & Text | Print | Product List | Glossary On
Versions: 1 2 3 4 5 6 7 8 9 10 11 12 13 14 15 16 17 18 19 20 21 22 23 24 25 26 27 28 29 30 31 32 33 34 35 36 37 38 39 40 41 42 43 44 45 46 47 48 49 50
693
ASUS43 KGLD 060508
RWRGLD

GOODLAND FORECAST AREA HOURLY WEATHER ROUNDUP
NATIONAL WEATHER SERVICE GOODLAND KS
1000 PM MST MON DEC 05 2016

...OFFICIAL OBSERVATIONS...

CITY           SKY/WX    TMP DP  RH WIND       PRES   REMARKS
GOODLAND KS    CLEAR     23  12  62 N12       29.93R WCI  12
HILL CITY KS   CLOUDY    33  18  53 N23G32    29.92R
IMPERIAL NEB   PTCLDY    25  12  58 NW17      29.95R WCI  12
MCCOOK NEB     CLOUDY    29  16  58 N16       29.94R WCI  17
AKRON CO       PTCLDY    14   7  73 N9        29.93R
BURLINGTON CO  CLEAR     23   9  55 N14       29.92R WCI  11
LIMON CO       CLEAR     14   7  73 N8        29.89R
$$

...UNOFFICIAL OBSERVATIONS...

CITY           SKY/WX    TMP DP  RH WIND       PRES   REMARKS
COLBY KS       CLOUDY    28  21  74 NW14      29.95R WCI  17
LENORA KS        N/A     31  32 100 MISG        N/A
NORTON KS      CLOUDY    30  12  47 NW21      29.92R WCI  17
SHARON SPRINGS   N/A     26  14  60 N13G21      N/A  WCI  15
TRENTON NEB      N/A     27  32 100 N7          N/A
KIT CARSON CO    N/A     22  10  60 MISG        N/A
YUMA CO        FAIR      16   7  67 NW7       29.95R
$$




USA.gov is the U.S. government's official web portal to all federal, state and local government web resources and services.